User: anonymous   Login
Location: ??????
(41.3164°N, 22.6615°E)
Time: 13:01:45
(UTC+00:00)
Language:

CZ-4B R/B - Orbit

View from above orbital plane
View from above orbital plane
View from above satellite
View from above satellite

Ground track
Ground track

The orbit data is extracted from the following two-line orbital elements,

1 27432U 02024C   22023.90874142 -.00000022  00000-0  12616-4 0  9995
2 27432  99.0749  46.8736 0049841 325.6882  96.6600 14.14122873 16391
Epoch (UTC): 23 January 2022 21:48:35
Eccentricity: 0.0049841
inclination: 99.0749°
perigee height: 809 km
apogee height: 881 km
right ascension of ascending node: 46.8736°
argument of perigee: 325.6882°
revolutions per day: 14.14122873
mean anomaly at epoch: 96.6600°
orbit number at epoch: 1639

The dashed part of the orbit path shows where the satellite is in the earth's shadow,  

DLR